Temperature
5 5 5 6 7 7 7 7 8 8 10 10 9 10 11 12 12 13 13 14 15 16 16 16 16 16 16 16 16 16 15 15 15 15 15 14 14 14 14 14 14 14 14 14
4 4 5 6 7 7 7 7 8 9 10 10 9 9 10 11 11 13 13 14 15 15 16 16 16 16 16 16 16 16 16 15 15 15 15 15 14 14 14 14 14 14 14 14
4 5 6 6 6 7 7 7 7 8 9 9 10 9 10 10 11 12 13 14 15 15 15 16 16 16 16 16 16 16 16 16 15 15 15 15 14 14 14 14 14 14 14 14
4 5 6 6 6 6 7 7 8 8 8 8 9 8 8 9 9 10 12 13 14 15 15 15 16 16 16 16 16 16 16 16 15 15 15 15 15 14 14 14 14 14 14 14
4 5 5 6 6 7 7 8 8 8 7 7 7 7 7 8 9 10 10 12 14 14 15 15 15 15 15 16 16 16 15 15 15 15 15 15 14 14 14 14 14 14 14 14
4 5 6 6 7 7 7 7 7 6 7 7 7 7 7 7 8 9 10 12 14 14 14 14 14 14 15 15 15 15 15 15 15 15 14 14 14 14 14 13 13 13 13 13
5 5 5 6 6 6 7 6 6 6 7 7 6 7 8 8 8 9 10 12 13 13 13 14 14 14 14 14 14 14 14 14 14 14 14 14 13 13 13 13 13 13 13 13
4 5 5 6 6 6 6 6 6 6 6 6 6 6 7 8 8 9 10 11 12 12 13 13 13 13 13 13 13 13 13 13 13 13 13 13 12 12 12 12 12 12 12 12
4 5 6 6 6 6 6 5 6 5 5 6 6 6 6 8 7 7 8 9 10 11 11 12 12 12 12 12 12 12 12 12 12 12 12 12 12 12 11 11 11 11 11 11
5 5 5 6 6 6 6 6 5 5 6 6 7 6 7 8 8 7 6 7 8 9 10 10 11 11 11 11 11 11 11 11 11 11 11 11 11 11 10 10 10 10 10 10
5 5 5 6 6 6 5 6 5 5 5 6 6 7 8 8 7 7 6 7 8 9 9 10 10 10 10 10 10 10 10 10 10 10 10 10 10 9 9 9 9 9 9 9
5 4 5 5 6 6 6 6 5 5 5 4 5 7 8 7 6 6 7 7 8 9 9 9 9 9 9 9 9 9 9 9 9 9 9 9 8 8 8 8 8 8 8 8
5 4 5 5 5 5 6 6 5 5 5 4 5 7 8 6 6 7 7 8 8 9 9 9 9 9 9 9 8 8 8 8 8 8 8 8 8 7 7 7 7 7 7 7
6 5 5 5 6 5 5 5 5 5 5 4 5 6 7 7 7 7 7 8 9 9 9 9 9 9 9 8 8 8 7 7 7 7 7 7 7 7 6 6 6 6 6 6
5 5 5 5 6 5 5 5 5 5 5 5 6 6 7 7 7 7 8 8 8 9 9 9 9 9 8 8 8 7 7 7 6 6 6 6 6 6 5 5 5 5 5 5
5 5 5 5 6 5 5 5 5 5 6 5 6 6 7 7 8 8 8 8 8 9 9 9 9 9 8 8 8 7 6 6 6 5 5 5 5 4 4 4 4 4 4 4
4 4 5 4 5 6 5 5 5 5 5 6 6 7 7 7 7 8 8 9 9 10 10 10 10 9 9 8 7 7 6 5 5 5 4 4 4 3 3 3 3 3 3 3
4 4 4 4 5 5 6 7 6 6 6 6 6 6 7 7 9 9 10 10 10 10 10 10 10 9 9 8 7 6 5 5 4 4 3 3 3 3 3 2 2 2 2 2
4 5 4 4 4 4 6 6 6 5 6 6 6 6 7 8 7 8 9 10 10 10 10 10 9 9 8 7 7 6 5 4 3 3 3 2 2 2 2 2 1 1 1 1
4 4 4 4 5 5 6 7 7 6 6 7 6 6 6 6 5 7 9 10 10 9 9 9 9 8 8 7 6 5 4 4 3 3 2 2 2 1 1 1 1 1 1 1
4 4 4 4 4 4 6 6 7 6 6 7 7 7 6 5 7 8 9 9 9 9 9 9 8 8 7 6 5 5 4 3 2 2 1 1 1 1 1 0 0 0 0 0
4 4 4 4 5 5 6 6 6 6 7 7 7 7 7 7 7 8 8 8 8 8 8 8 7 7 6 5 5 4 3 2 2 1 1 1 0 0 0 0 -0 -0 -0 -0
4 4 4 4 5 6 6 7 7 7 7 7 7 7 7 7 7 8 8 8 8 7 7 7 7 6 5 5 4 3 3 2 1 1 1 0 0 0 0 -0 -0 -0 -0 -0
3 3 4 4 4 6 7 7 8 8 7 8 7 7 7 7 7 7 7 7 7 7 6 6 6 5 5 4 3 3 2 1 1 0 0 0 0 0 -0 -0 -0 -0 -0 -0
3 3 3 4 4 5 7 7 8 7 7 7 7 7 7 7 7 7 7 6 6 6 6 5 5 5 4 3 3 2 2 1 1 0 0 0 0 0 0 -0 -0 -0 -0 -1
2 3 3 4 5 5 6 7 7 7 7 7 7 7 6 6 6 6 6 6 5 5 5 5 4 4 4 3 3 2 1 1 0 0 0 0 0 0 -0 -0 -0 -0 -0 -1
Wind_Speed
2 2 5 7 5 3 5 6 5 5 4 6 8 8 7 4 4 7 7 6 6 7 4 2 2 3 4 4 5 6 6 6 5 4 4 4 4 4 3 5 8 10 10 11
3 3 3 3 3 2 4 5 4 2 3 5 5 8 7 7 8 9 9 9 8 6 4 2 1 2 4 4 5 5 5 5 5 4 4 3 3 3 3 3 5 6 7 8
3 2 3 4 4 3 3 6 5 4 3 2 1 6 8 8 8 9 9 9 8 9 8 5 3 3 3 4 4 4 4 4 4 4 3 3 2 2 2 2 2 3 5 6
1 2 3 4 4 5 3 4 5 4 4 2 3 5 8 7 9 12 13 11 10 9 8 6 5 4 4 4 3 4 4 4 3 3 4 5 4 4 3 2 1 1 2 3
2 1 4 5 4 5 3 4 4 3 3 1 2 3 8 4 9 14 14 12 11 10 9 9 7 6 4 4 4 4 5 4 3 3 4 4 3 3 1 1 1 1 1 1
2 1 2 3 2 4 4 5 5 4 2 4 7 6 8 7 10 9 10 11 11 10 9 8 6 6 4 4 4 4 5 4 3 4 3 4 4 3 2 1 1 1 1 1
1 1 2 2 4 3 3 5 3 2 4 6 6 6 10 9 9 9 10 10 9 9 10 10 9 8 7 6 5 5 6 4 3 4 3 3 3 3 3 2 1 0 0 1
3 3 4 4 5 5 5 5 5 5 5 3 3 8 9 8 6 7 8 7 6 8 9 10 10 8 8 7 6 6 6 5 4 4 4 3 3 2 2 1 1 1 0 1
4 2 1 3 3 7 6 4 3 3 1 2 5 7 9 5 5 5 4 4 7 8 9 9 8 7 7 7 6 6 6 5 4 4 5 4 4 4 3 3 2 2 2 1
3 3 2 3 4 2 4 6 5 4 3 4 5 5 5 6 6 5 4 5 6 7 7 8 7 7 6 6 5 6 6 6 5 5 4 4 4 4 4 4 4 4 3 3
3 3 3 3 6 8 5 5 4 4 3 4 3 6 6 7 7 7 7 6 7 8 8 7 7 6 6 6 6 6 6 6 5 5 5 6 5 5 5 5 4 4 4 4
4 3 2 2 1 3 5 7 7 5 4 4 3 7 4 5 7 6 6 6 6 7 6 6 7 7 6 6 6 6 5 5 5 5 5 5 5 5 6 5 5 5 5 5
5 4 3 1 1 3 4 5 6 4 3 4 4 7 4 4 2 3 5 6 6 7 7 6 6 7 7 6 6 6 5 5 5 5 6 5 5 5 5 5 5 5 6 6
5 3 5 6 5 6 6 7 9 7 5 5 8 8 8 6 4 3 5 7 7 7 8 8 7 7 7 7 6 6 6 5 6 6 6 5 5 5 5 5 5 5 6 6
4 3 4 5 4 5 6 8 11 12 10 9 8 9 10 8 6 6 6 6 7 7 8 9 9 8 7 7 7 6 6 6 6 6 6 5 5 5 5 5 5 5 6 6
2 2 2 2 2 5 5 8 12 13 11 12 11 12 9 6 4 5 7 8 9 10 10 10 9 9 9 9 9 8 7 6 6 6 6 5 5 5 5 5 5 6 6 6
2 3 2 2 2 0 6 10 13 8 8 9 14 14 6 6 7 9 9 10 11 11 10 11 11 11 11 10 10 9 8 7 7 7 6 6 6 5 5 5 6 6 6 6
4 4 2 1 1 6 7 3 7 9 10 11 10 8 8 10 9 7 8 10 11 10 9 9 9 9 8 8 8 8 8 8 8 7 7 6 6 6 5 5 6 6 5 5
6 5 3 2 3 6 7 3 5 7 7 8 13 12 9 5 2 4 6 8 10 9 8 7 7 7 8 10 10 10 9 8 8 7 7 7 7 7 7 6 6 5 5 5
3 4 3 3 2 5 5 2 2 3 5 4 5 8 6 5 4 6 4 6 6 5 4 5 6 7 9 9 11 11 10 9 9 8 7 7 7 7 7 7 6 4 5 5
3 3 5 5 4 7 6 3 3 2 5 3 2 4 5 7 6 2 3 4 4 4 5 6 8 7 8 10 11 10 9 9 8 7 7 7 7 7 7 6 5 6 5 5
6 5 5 5 5 7 3 4 5 6 3 2 2 2 3 3 2 3 3 4 5 5 5 6 7 6 7 9 10 10 9 7 7 8 8 7 7 7 7 7 6 6 6 6
5 6 5 7 7 4 3 5 4 2 2 2 1 1 2 3 2 2 3 3 3 4 4 4 6 6 6 8 9 9 7 8 9 8 8 7 7 6 7 7 7 6 5 5
4 1 2 4 6 5 5 4 3 2 3 1 0 1 2 3 3 3 2 2 2 3 4 4 6 7 7 7 7 7 8 9 9 9 8 8 8 7 6 6 6 6 6 5
4 2 2 5 6 5 5 3 3 1 1 1 2 2 2 3 2 2 2 1 2 2 3 5 6 7 7 7 7 7 9 10 9 9 8 8 7 7 6 6 5 6 6 6
4 5 4 5 4 3 5 4 1 2 1 1 2 2 2 2 2 2 1 1 1 2 2 4 5 6 6 7 8 8 9 10 10 9 9 7 7 6 6 5 4 7 8 10
Wind_Direction
105 139 202 198 194 185 146 145 164 196 193 174 208 231 244 246 237 239 241 235 235 245 264 266 203 180 166 166 175 181 177 175 165 163 172 179 196 195 194 204 207 209 210 209
86 223 217 175 177 164 171 160 162 178 172 174 213 244 244 230 228 231 233 233 231 230 244 246 200 151 166 172 172 171 175 170 174 178 170 166 164 179 189 192 201 208 208 209
168 220 181 167 166 179 200 178 169 155 112 104 143 272 246 243 227 232 232 227 223 216 217 213 195 171 153 157 167 170 169 164 169 169 148 124 117 110 153 191 202 217 213 213
206 237 174 172 184 176 206 190 166 145 135 201 174 248 262 235 240 235 232 226 223 215 205 197 187 174 164 168 148 140 141 138 142 148 160 169 180 195 198 193 200 216 210 214
215 185 170 185 193 172 179 138 139 135 127 116 196 224 275 242 238 239 233 224 218 209 198 192 185 174 159 151 139 133 119 105 103 122 153 164 180 193 170 143 183 231 259 245
231 211 178 178 150 165 138 82 71 66 96 230 205 197 268 231 222 238 232 221 211 199 192 184 171 156 144 130 124 123 117 103 96 106 116 145 166 171 164 176 213 265 296 316
190 191 189 161 133 130 137 120 115 154 198 238 188 201 248 243 230 228 234 228 212 194 184 177 170 165 155 142 132 123 121 109 94 100 100 112 136 146 162 185 206 220 324 331
167 199 189 174 171 158 168 149 164 182 199 242 195 227 252 255 263 255 249 235 205 191 184 179 173 165 156 147 137 128 122 114 100 99 93 78 87 109 111 103 114 109 34 312
170 200 150 165 147 142 150 176 145 108 111 214 239 272 295 264 274 270 244 204 194 183 175 168 160 154 150 143 138 135 125 112 101 101 97 81 77 85 88 78 73 66 37 28
156 157 155 144 119 118 153 144 121 147 180 231 255 255 249 270 267 266 237 208 191 168 158 153 152 151 146 137 125 117 118 115 104 95 95 93 79 79 82 79 70 63 48 46
153 143 138 151 187 176 153 157 158 166 184 190 239 265 229 241 258 249 237 211 184 172 165 158 152 146 136 128 125 121 117 112 105 98 93 90 80 76 78 74 63 60 56 53
164 137 161 207 231 188 178 175 161 177 211 203 211 267 282 268 267 236 216 195 181 171 162 154 148 143 142 141 138 133 128 122 118 111 102 96 90 84 80 74 65 67 67 60
158 143 129 122 209 186 202 192 182 160 151 184 197 262 309 342 326 207 190 184 174 166 159 155 157 161 161 157 152 146 139 132 124 117 111 102 93 90 86 80 73 72 74 70
155 157 183 195 207 180 193 196 185 177 203 221 228 256 295 311 305 255 204 189 180 177 173 172 177 178 173 167 162 155 147 139 133 124 118 112 105 102 98 89 81 77 80 80
145 196 226 243 225 181 201 200 195 205 211 218 237 238 258 263 255 238 212 191 181 188 190 191 190 186 178 173 169 162 154 147 140 133 127 124 116 108 101 94 90 87 86 86
143 200 209 287 234 203 225 219 209 217 223 235 252 261 251 249 233 222 208 195 198 204 204 201 196 189 187 184 178 169 163 156 147 143 139 133 126 118 111 107 103 97 91 87
184 160 161 272 301 137 255 224 209 207 209 205 234 247 239 234 229 223 212 204 209 212 208 202 200 198 195 188 178 175 167 154 150 149 146 144 140 136 131 126 115 107 100 95
178 161 169 208 102 237 245 227 199 213 233 220 234 245 229 231 235 227 207 204 214 215 211 208 201 195 184 172 166 158 153 156 157 157 157 156 154 148 139 133 125 115 108 102
182 168 170 175 236 280 294 263 185 197 261 232 235 248 246 233 251 268 224 207 212 210 203 200 190 178 164 165 161 154 157 159 163 168 169 167 164 159 154 149 138 128 120 110
156 161 174 177 212 251 262 289 177 141 282 273 229 244 237 170 207 252 221 191 192 178 168 161 150 148 158 162 156 158 165 170 179 179 173 168 167 165 163 155 141 129 127 121
156 184 203 204 231 264 262 259 133 180 259 297 259 246 205 193 213 227 131 126 136 135 135 139 145 155 164 158 158 166 173 186 182 165 161 164 166 164 158 148 140 138 132 122
185 188 200 192 220 254 254 140 182 228 267 300 309 293 190 181 132 103 105 113 121 122 130 139 145 151 154 160 164 173 186 178 157 157 162 165 164 162 156 150 146 144 142 139
208 199 196 201 221 249 219 215 246 231 248 282 303 357 132 136 135 124 118 121 125 136 145 147 152 154 162 171 173 181 180 158 157 162 167 166 164 162 160 161 159 154 157 160
287 271 214 254 268 270 265 255 263 233 228 251 153 121 129 131 135 127 121 125 137 150 162 159 160 169 181 184 186 181 164 162 164 170 172 171 171 169 168 170 170 170 176 180
265 284 261 266 282 302 295 260 244 223 166 124 88 92 117 127 133 148 148 162 179 182 177 177 184 192 193 186 188 176 167 167 171 176 178 179 180 177 177 180 185 186 195 193
216 208 217 247 265 258 278 300 264 197 199 174 138 98 70 103 124 123 136 157 179 195 187 195 202 203 195 187 189 182 176 176 177 183 185 185 183 181 180 180 194 219 213 222
Height
1482 1486 1486 1486 1487 1488 1491 1494 1496 1496 1494 1497 1499 1499 1497 1497 1498 1499 1500 1501 1503 1504 1506 1509 1511 1514 1516 1519 1522 1524 1527 1530 1532 1535 1537 1539 1540 1542 1544 1546 1548 1549 1550 1551
1486 1488 1486 1486 1487 1489 1491 1494 1495 1495 1494 1496 1498 1498 1496 1495 1495 1496 1497 1498 1500 1502 1503 1505 1508 1510 1513 1516 1518 1521 1524 1526 1529 1531 1533 1535 1537 1539 1541 1542 1544 1545 1546 1547
1486 1487 1485 1486 1488 1491 1492 1494 1495 1495 1495 1495 1497 1498 1495 1491 1491 1492 1493 1494 1496 1498 1500 1502 1505 1507 1510 1513 1515 1518 1520 1523 1525 1528 1530 1532 1534 1535 1537 1538 1539 1541 1542 1542
1486 1485 1485 1487 1489 1491 1493 1491 1493 1495 1498 1502 1500 1505 1495 1490 1488 1487 1486 1488 1490 1493 1496 1499 1501 1504 1506 1509 1512 1514 1517 1519 1522 1524 1526 1527 1529 1530 1532 1534 1535 1536 1537 1537
1486 1485 1485 1487 1488 1489 1491 1490 1493 1496 1500 1503 1503 1505 1496 1488 1486 1480 1479 1481 1484 1488 1492 1495 1498 1500 1503 1505 1508 1510 1513 1515 1518 1520 1522 1523 1525 1526 1527 1529 1530 1531 1531 1532
1485 1485 1485 1485 1486 1488 1490 1493 1496 1500 1502 1504 1502 1505 1496 1487 1478 1475 1474 1475 1478 1482 1487 1490 1493 1496 1499 1501 1504 1506 1509 1511 1513 1515 1517 1519 1520 1521 1522 1523 1524 1525 1526 1526
1485 1484 1484 1485 1487 1489 1491 1497 1502 1502 1503 1501 1498 1498 1487 1475 1471 1470 1469 1470 1472 1477 1481 1485 1488 1492 1495 1498 1500 1503 1505 1507 1509 1511 1512 1514 1515 1516 1517 1518 1519 1520 1520 1521
1486 1486 1483 1483 1484 1487 1491 1494 1500 1502 1502 1503 1499 1496 1481 1469 1467 1466 1466 1467 1468 1471 1475 1479 1484 1488 1491 1494 1497 1499 1501 1503 1505 1506 1507 1509 1510 1511 1512 1513 1514 1514 1515 1515
1484 1484 1481 1481 1482 1485 1490 1494 1495 1502 1502 1501 1497 1490 1478 1466 1464 1463 1463 1464 1465 1467 1471 1475 1480 1484 1488 1491 1494 1496 1497 1499 1501 1502 1503 1505 1506 1507 1508 1508 1509 1509 1510 1510
1480 1483 1481 1481 1483 1485 1487 1490 1497 1502 1501 1496 1490 1487 1479 1467 1464 1463 1463 1462 1463 1466 1470 1474 1478 1482 1485 1488 1491 1493 1494 1496 1497 1499 1500 1501 1502 1502 1503 1504 1504 1504 1505 1505
1478 1481 1482 1482 1482 1483 1488 1490 1492 1496 1497 1498 1493 1483 1467 1465 1463 1462 1462 1462 1464 1466 1469 1473 1477 1481 1484 1486 1488 1490 1492 1493 1494 1495 1496 1497 1498 1499 1499 1500 1500 1501 1501 1501
1476 1480 1481 1481 1480 1480 1481 1484 1489 1493 1494 1498 1495 1482 1462 1462 1460 1460 1460 1462 1464 1467 1470 1474 1477 1480 1482 1484 1486 1488 1489 1491 1492 1492 1493 1494 1495 1495 1496 1496 1497 1497 1497 1497
1474 1479 1482 1482 1484 1482 1481 1481 1483 1487 1492 1496 1494 1478 1462 1460 1459 1459 1460 1462 1465 1468 1471 1474 1476 1478 1481 1483 1484 1486 1487 1488 1489 1490 1490 1491 1492 1492 1492 1493 1493 1494 1494 1494
1470 1475 1478 1478 1474 1475 1477 1478 1480 1484 1486 1488 1484 1474 1464 1461 1460 1460 1460 1462 1464 1467 1470 1472 1474 1477 1479 1481 1482 1484 1485 1486 1486 1487 1488 1488 1489 1489 1489 1490 1490 1490 1491 1491
1469 1473 1473 1472 1469 1471 1472 1472 1475 1477 1476 1479 1472 1470 1462 1460 1459 1459 1459 1461 1463 1465 1468 1470 1472 1475 1477 1478 1480 1481 1482 1483 1484 1484 1485 1485 1486 1486 1486 1487 1487 1488 1488 1488
1469 1471 1471 1469 1467 1469 1469 1468 1470 1470 1471 1470 1468 1463 1457 1456 1457 1457 1457 1459 1460 1462 1465 1467 1470 1472 1474 1476 1477 1478 1479 1480 1481 1481 1482 1482 1483 1483 1484 1484 1485 1486 1486 1486
1470 1471 1472 1473 1469 1466 1469 1461 1462 1464 1462 1462 1461 1454 1453 1454 1454 1453 1454 1455 1457 1459 1462 1464 1467 1469 1471 1473 1474 1476 1477 1477 1478 1479 1479 1480 1480 1481 1482 1482 1483 1484 1484 1485
1468 1469 1472 1472 1471 1472 1458 1452 1453 1455 1454 1454 1451 1449 1449 1448 1448 1449 1450 1452 1454 1456 1459 1461 1464 1466 1468 1470 1471 1473 1473 1474 1475 1476 1476 1477 1478 1478 1479 1480 1481 1482 1483 1484
1463 1466 1469 1472 1472 1466 1455 1450 1451 1453 1451 1447 1447 1445 1445 1446 1447 1446 1447 1448 1450 1453 1456 1458 1461 1463 1465 1466 1468 1469 1470 1471 1472 1472 1473 1474 1475 1476 1477 1478 1479 1480 1482 1482
1462 1463 1467 1469 1468 1466 1454 1448 1447 1450 1449 1443 1442 1442 1442 1444 1448 1444 1444 1445 1447 1450 1453 1455 1457 1459 1461 1463 1464 1465 1466 1467 1468 1470 1471 1472 1473 1474 1475 1476 1478 1479 1480 1481
1462 1464 1464 1465 1464 1460 1449 1446 1448 1454 1449 1442 1440 1439 1439 1440 1441 1442 1442 1443 1445 1447 1450 1452 1454 1456 1458 1459 1461 1462 1463 1464 1466 1467 1468 1469 1470 1472 1473 1475 1476 1478 1479 1480
1458 1460 1460 1461 1461 1458 1445 1446 1448 1446 1442 1441 1439 1438 1438 1438 1440 1440 1441 1442 1444 1446 1448 1449 1451 1453 1454 1456 1457 1458 1460 1462 1463 1464 1465 1466 1468 1470 1471 1473 1474 1476 1478 1479
1455 1454 1454 1454 1452 1445 1443 1443 1442 1442 1441 1440 1440 1439 1439 1439 1440 1440 1441 1442 1444 1445 1446 1448 1449 1450 1452 1453 1454 1456 1457 1459 1460 1461 1462 1464 1466 1467 1469 1471 1473 1474 1476 1477
1453 1451 1451 1450 1445 1442 1441 1441 1440 1440 1440 1440 1440 1439 1439 1440 1440 1441 1442 1442 1443 1444 1445 1446 1447 1448 1449 1450 1451 1453 1454 1455 1457 1458 1460 1461 1463 1465 1467 1469 1471 1473 1474 1475
1453 1452 1450 1448 1443 1441 1439 1439 1439 1439 1439 1439 1439 1439 1439 1440 1440 1441 1441 1442 1442 1443 1444 1444 1445 1446 1447 1448 1449 1450 1451 1452 1454 1455 1457 1459 1461 1463 1465 1467 1469 1471 1472 1474
1449 1450 1450 1446 1443 1442 1440 1438 1438 1438 1438 1438 1438 1438 1439 1439 1439 1440 1440 1441 1441 1441 1442 1442 1442 1443 1444 1445 1446 1447 1448 1449 1450 1452 1454 1456 1458 1460 1462 1464 1466 1468 1470 1471